Theta_e
341 340 335 334 335 336 337 334 329 321 323 331 336 342 344 344 345 343 341 346 343 343 342 342 344 346 348 350 352 352 353 353 354 354 354 356 358 361
339 339 339 334 332 333 330 333 330 327 322 329 333 339 340 346 345 345 348 346 343 341 340 339 341 343 344 346 346 347 347 348 348 348 348 349 349 352
340 337 336 334 330 329 328 327 325 324 323 328 334 339 340 338 341 347 346 344 349 339 339 338 337 339 341 342 341 342 343 343 343 344 345 346 346 346
337 336 334 330 330 328 325 323 323 323 323 325 331 335 338 340 339 343 343 344 343 341 337 337 336 335 335 336 336 336 337 337 338 339 340 342 343 343
337 334 333 331 327 326 325 322 321 321 321 321 327 334 337 339 340 342 340 342 343 338 337 336 335 334 332 331 331 330 330 330 331 331 332 334 337 339
336 334 332 330 328 325 324 322 320 318 319 319 321 328 334 337 339 336 339 344 343 349 346 343 338 336 334 330 330 330 326 324 324 325 325 326 329 332
335 333 332 332 330 327 324 322 320 316 317 317 317 321 325 332 333 335 337 340 343 345 344 347 345 343 340 333 337 334 328 325 322 321 321 321 321 323
331 332 332 331 330 327 326 326 322 318 315 315 317 316 319 327 335 335 334 335 334 344 343 344 348 346 346 344 338 335 328 326 323 321 319 318 318 319
332 332 329 330 328 328 326 325 323 322 322 319 318 319 320 324 332 334 334 335 335 341 343 339 347 345 349 347 335 332 330 325 323 322 320 319 318 316
333 331 329 329 330 328 325 323 322 319 321 322 321 322 324 328 329 336 336 335 340 343 346 336 343 343 348 349 335 332 329 325 322 321 320 317 314 313
333 331 331 328 324 319 321 320 317 318 321 320 320 320 321 322 325 331 334 332 331 337 344 340 342 341 342 344 340 331 328 323 320 320 319 316 312 310
330 331 323 321 315 311 317 318 316 317 318 319 319 323 321 321 323 325 331 333 330 333 341 339 340 338 335 342 339 331 326 318 317 317 317 315 310 325
323 323 329 314 308 308 309 319 314 315 319 318 318 319 328 327 326 328 335 339 332 335 341 343 338 340 339 339 341 339 338 324 326 320 312 311 309 321
323 325 327 306 305 307 312 311 311 315 317 317 316 315 316 327 332 338 338 340 343 339 343 344 340 340 338 334 333 342 343 334 335 331 327 313 308 311
325 319 311 307 308 310 310 311 313 315 314 315 315 316 316 320 328 339 341 339 340 343 342 344 344 342 340 337 336 339 338 340 340 337 334 324 322 322
317 319 318 313 310 311 312 313 313 313 314 314 315 318 319 317 317 322 336 338 336 338 341 342 343 343 338 338 336 334 339 337 340 339 334 333 333 332
303 318 324 318 311 310 310 312 311 311 311 315 315 316 317 315 315 317 321 325 333 333 335 338 343 340 331 335 333 335 337 338 341 339 335 333 334 335
311 317 313 312 310 308 308 308 310 310 309 310 314 313 316 316 314 315 317 316 316 318 321 328 334 332 329 325 324 335 336 334 338 336 334 332 333 337
314 311 309 309 307 306 305 306 306 308 311 309 310 311 311 316 316 314 314 314 313 314 315 318 318 325 326 323 323 315 329 333 333 332 333 332 331 334
310 307 306 305 304 304 304 304 304 305 307 309 310 309 310 311 316 315 314 313 313 314 314 315 315 315 314 315 315 317 310 320 325 330 329 328 327 323
305 302 300 298 296 297 298 298 302 301 302 306 307 307 307 307 308 316 317 312 312 314 313 313 316 317 318 317 312 314 318 309 314 317 326 327 325 326
302 299 297 296 295 295 295 296 297 301 301 302 305 306 307 306 306 309 314 313 314 316 315 317 319 318 317 314 312 312 317 319 317 312 312 313 320 315
306 305 304 303 300 299 297 296 296 298 300 302 302 302 303 306 307 306 308 310 308 306 316 316 318 319 317 316 314 314 313 317 319 319 316 311 313 312
Wind_Speed
3 4 5 6 6 6 4 6 8 13 13 12 8 5 4 6 12 11 11 12 18 21 22 22 22 22 21 21 21 20 19 19 18 16 16 16 15 16
4 4 4 5 8 7 9 7 8 12 16 11 11 10 8 6 11 13 8 17 24 21 21 21 22 22 22 21 21 21 21 20 18 17 16 15 14 15
4 4 3 4 6 6 7 8 8 9 15 13 12 12 9 10 8 9 9 11 7 15 20 20 21 21 21 20 20 20 20 19 17 17 17 17 16 14
4 4 4 3 5 5 6 9 9 11 14 17 13 12 12 11 11 11 10 11 2 14 19 21 22 22 20 19 18 18 19 18 19 17 16 17 17 15
5 5 3 2 5 5 6 7 8 9 10 12 13 11 11 10 9 9 10 7 8 18 30 21 22 21 18 18 18 18 18 17 15 17 15 16 14 13
5 5 5 5 5 6 6 7 7 9 10 10 11 12 10 12 8 7 9 9 12 14 11 13 16 16 17 17 18 18 17 17 16 15 15 14 13 13
6 6 7 7 8 8 6 8 8 8 9 10 11 11 11 12 12 9 10 10 10 9 7 6 6 8 9 12 13 17 16 16 15 15 14 13 13 13
8 6 7 9 10 11 16 14 10 11 14 11 12 13 13 12 13 11 8 9 9 10 9 7 8 9 9 9 17 16 18 16 16 15 14 13 13 12
8 6 9 7 9 10 11 12 12 17 18 18 16 15 15 15 14 15 13 9 12 8 9 9 8 9 9 10 18 20 19 18 17 15 14 14 13 12
9 9 11 10 10 11 9 9 12 16 17 15 17 18 17 15 15 13 14 12 8 5 7 9 7 10 9 8 15 20 18 18 17 16 14 13 12 11
7 9 9 9 9 6 6 8 12 17 19 28 29 31 31 28 21 10 11 13 12 8 8 6 6 9 5 7 8 18 21 18 17 15 13 12 10 8
8 8 7 4 6 5 5 7 11 17 20 24 20 20 24 23 30 17 12 11 11 9 9 8 6 5 5 7 5 5 5 8 11 11 12 11 10 4
8 7 3 6 10 10 5 6 10 16 20 18 17 14 9 12 12 14 15 11 11 9 5 7 7 6 7 3 4 6 8 6 5 5 8 10 12 9
8 6 3 10 8 8 8 12 14 16 12 13 14 15 13 8 9 11 15 12 8 10 7 6 4 7 8 7 5 4 7 7 8 7 6 5 6 7
7 6 6 8 8 7 12 14 12 9 11 13 13 13 14 12 12 8 9 15 13 9 9 6 4 6 4 5 4 4 4 6 8 8 8 7 6 5
10 8 2 8 11 7 8 9 8 8 10 10 13 12 12 14 13 8 5 8 9 8 9 10 7 5 4 5 6 7 5 6 8 7 7 6 7 6
10 5 2 4 6 7 7 7 8 8 9 11 10 12 12 14 13 12 8 7 7 8 7 7 5 6 6 2 4 7 8 5 9 9 8 7 6 7
3 4 7 8 7 7 8 7 7 10 9 9 10 12 11 11 12 11 11 11 9 6 5 2 6 6 3 6 12 2 4 5 5 9 6 6 6 7
6 8 7 6 6 5 7 6 7 7 6 8 9 10 11 9 10 11 12 10 12 10 9 8 9 2 7 4 3 13 2 3 4 8 5 3 4 4
7 7 6 6 7 8 8 8 9 9 8 8 9 10 10 11 9 7 7 9 10 10 11 11 11 10 8 4 2 4 12 8 2 6 4 3 5 9
7 7 6 7 6 6 7 8 7 8 9 9 8 8 9 10 10 9 9 11 8 8 10 8 9 10 7 2 8 4 8 15 12 8 3 7 4 3
4 4 3 3 3 3 5 6 7 6 7 8 8 8 8 7 8 10 8 9 9 7 4 3 3 4 6 8 7 7 6 7 10 16 19 14 2 4
3 4 4 2 3 1 2 3 6 7 8 8 8 7 8 9 7 8 9 8 7 8 7 4 1 1 3 5 5 3 8 9 5 7 8 14 15 12
Wind_Direction
357 12 333 315 328 326 277 271 278 293 287 281 272 226 214 176 239 256 278 257 220 199 200 203 209 211 212 215 219 222 226 229 229 228 233 234 236 241
325 333 315 355 326 336 336 336 326 299 283 277 267 257 235 211 216 220 246 277 243 202 203 205 210 213 211 212 215 219 223 225 227 228 231 235 232 238
300 304 336 355 347 333 335 324 306 312 282 275 270 263 241 242 241 222 228 223 258 216 209 208 211 214 213 211 212 215 220 222 223 224 228 233 232 234
285 283 303 0 331 330 331 316 311 304 322 275 271 266 255 240 246 219 223 241 319 282 232 214 212 212 210 207 208 211 216 216 221 222 224 228 233 230
273 290 292 332 294 303 301 306 310 314 323 316 292 265 258 256 255 220 217 188 205 233 234 220 211 206 205 204 207 211 214 215 213 220 224 226 226 220
270 272 267 241 266 298 300 303 305 314 319 314 301 298 261 253 244 240 227 208 208 225 224 203 197 210 204 201 207 214 212 212 214 216 220 224 219 220
256 256 255 239 231 252 270 287 302 305 305 301 295 290 287 256 241 232 226 225 224 220 228 211 192 194 211 214 212 211 212 211 210 213 215 218 220 223
273 262 271 277 250 242 253 258 280 297 298 296 286 281 276 281 260 241 227 218 222 220 217 225 190 204 201 201 201 196 203 207 205 212 213 216 224 223
282 271 273 272 279 269 262 266 288 297 271 274 276 270 268 257 266 249 237 226 222 216 196 218 204 215 208 206 195 197 200 202 202 207 208 212 217 216
268 271 273 285 278 277 303 294 306 301 300 294 279 268 263 264 245 260 248 231 233 220 190 214 207 217 218 216 196 199 197 192 193 197 200 203 206 208
281 266 271 280 304 359 313 299 308 312 315 308 291 267 255 252 253 261 248 234 230 214 210 196 215 219 209 236 208 193 190 187 184 184 186 191 197 199
290 280 295 25 331 1 329 313 317 323 311 315 314 299 240 235 233 233 226 228 222 230 211 193 201 190 249 233 153 163 146 143 161 172 176 181 176 180
305 304 354 23 24 354 335 347 325 312 320 324 327 335 307 204 217 212 214 224 208 223 202 189 205 195 202 188 168 175 168 143 160 173 177 176 179 200
282 291 359 47 10 18 358 326 332 324 329 323 335 353 353 327 208 204 206 212 223 213 215 196 205 211 217 217 223 165 193 159 167 171 173 152 177 212
271 328 330 73 31 23 347 337 334 334 334 331 326 346 356 344 330 207 209 207 210 216 215 228 204 217 217 218 213 177 155 179 183 172 163 164 170 189
5 321 339 115 59 3 353 353 342 337 324 329 337 334 345 2 2 358 231 195 208 220 216 210 210 191 222 222 208 234 226 173 179 172 160 172 172 187
318 302 309 62 37 10 357 354 348 344 342 340 341 341 1 0 5 9 2 9 231 209 208 211 191 92 59 323 206 232 225 184 179 164 163 177 185 182
285 11 35 37 24 7 351 353 355 353 349 334 346 352 354 3 360 9 16 31 20 28 59 15 141 128 135 82 41 292 211 177 186 159 157 160 187 184
38 42 34 20 13 1 351 355 349 345 334 345 356 354 353 349 355 11 16 22 30 25 39 39 48 321 199 164 25 20 221 143 157 153 149 165 155 168
47 45 26 19 12 2 359 2 354 352 357 2 3 357 352 357 2 0 12 19 35 27 40 34 48 45 50 52 72 37 9 55 346 157 120 92 86 94
47 46 28 24 18 360 349 342 354 351 349 350 6 8 9 358 0 358 11 17 31 39 46 34 25 15 56 62 51 358 46 54 50 35 83 124 109 95
96 92 76 45 22 355 345 342 343 343 349 353 358 7 7 8 7 359 28 17 10 14 47 31 324 359 51 66 64 15 33 47 41 51 44 45 71 115
53 32 37 113 140 65 322 342 353 356 360 357 5 8 360 0 13 13 19 23 27 10 3 356 315 314 55 54 44 24 38 40 25 34 46 34 43 45